Location: Philomena
(55.1756°N, 111.6233°W)
Time: 08:38:09
(UTC+00:00)

PCSat - Pass Details

Date: 05 December 2023
Orbit: 784 x 791 km, 67.0° (Epoch: 02 March)

Event Time Altitude Azimuth Distance (km) Brightness Sun altitude
Exits shadow 14:08:33 12° 269° (W) 2,199 11.3 -11.2°
Maximum altitude 14:13:01 35° 333° (NNW) 1,264 10.2 -10.7°
Drops below altitude 10° 14:17:58 10° 39° (NE) 2,364 12.2 -10.0°
Sets 14:20:36 0° 48° (NE) 3,297 13.1 -9.7°
